Location: Arrodets-la-Barthe
(43.0306°N, 0.2829°E)
Time: 00:45:59
(UTC+00:00)

Cosmos 2344 - Pass Details

Date: 06 June 2022
Orbit: 1228 x 3015 km, 63.3° (Epoch: 04 July)

Event Time Altitude Azimuth Distance (km) Brightness Sun altitude
Rises 23:07:19 0° 305° (NW) 4,192 7.0 -23.2°
Reaches altitude 10° 23:11:01 10° 324° (NW) 3,316 6.6 -23.4°
Maximum altitude 23:16:26 19° 8° (N) 2,888 6.2 -23.6°
Drops below altitude 10° 23:22:40 10° 51° (NE) 3,895 6.5 -23.7°
Sets 23:27:35 0° 68° (ENE) 5,205 6.9 -23.9°
